Location: Bastelaar
(51.0950°N, 3.8602°E)
Time: 02:02:35
(UTC+00:00)

ARIANE 6 FM1 Upper Stage - Pass Details

Date: 28 January 2026
Orbit: 522 x 609 km, 62.0° (Epoch: 13 February)

Event Time Altitude Azimuth Distance (km) Brightness Sun altitude
Rises 17:32:27 0° 225° (SW) 2,703 7.3 -10.1°
Reaches altitude 10° 17:34:40 10° 225° (SW) 1,801 6.3 -10.5°
Maximum altitude 17:38:43 88° 134° (SE) 540 2.5 -11.1°
Enters shadow 17:42:04 14° 48° (NE) 1,523 4.3 -11.6°
